Thief River Falls, MN

1:45 AM CDT on June 25, 2017 (GMT -0500)
Thief River Falls Regional

Weather History for KTVF - December, 2012

Change the Weather History Date:

Sunday, December 23, 2012

  Actual Average Record
Temperature  
Mean Temperature -3 °F -  
Max Temperature 1 °F 14 °F 36 °F (2016)
Min Temperature -7 °F 1 °F -28 °F (1983)
Degree Days  
Heating Degree Days 68    
Moisture  
Dew Point -6 °F    
Average Humidity 83    
Maximum Humidity 92    
Minimum Humidity 71    
Precipitation  
Precipitation 0.00 in - - ()
Sea Level Pressure  
Sea Level Pressure 30.19 in    
Wind  
Wind Speed 7 mph (North)    
Max Wind Speed 12 mph    
Max Gust Speed -    
Visibility 10 miles    
Events      
Averages and records for this station are not official NWS values.
T = Trace of Precipitation, MM = Missing Value Source: NWS Daily Summary

Daily Weather History Graph

Daily Weather History Graph

Search for Another Location

Airport or City:

Trip Planner

Search our weather history database for the weather conditions in past years. The results will help you decide how hot, cold, wet, or windy it might be!

Date:

Astronomy

Dec. 23, 2012 Rise Set
Actual Time 8:13 AM CST 4:35 PM CST
Civil Twilight 7:36 AM CST 5:11 PM CST
Nautical Twilight 6:56 AM CST 5:51 PM CST
Astronomical Twilight 6:19 AM CST 6:29 PM CST
Moon 1:35 PM CST (12/23) 3:46 AM CST (12/23)
Length of Visible Light 9h 34m
Length of Day
8h 21m
Waxing Gibbous, 82% of the Moon is Illuminated
Dec 23
Waxing Gibbous
Dec 28
Full
Jan 4
Last Quarter
Jan 11
New
Jan 18
First Quarter

Hourly Weather History & Observations

Time (CST) Temp. Windchill Dew Point Humidity Pressure Visibility Wind Dir Wind Speed Gust Speed Precip Events Conditions
12:15 AM -2.2 °F -15.6 °F -5.8 °F 85% 30.20 in 10.0 mi NW 6.9 mph - N/A   Clear
12:35 AM -2.2 °F -14.2 °F -4.0 °F 92% 30.21 in 10.0 mi NNW 5.8 mph - N/A   Clear
12:55 AM -2.2 °F -15.6 °F -4.0 °F 92% 30.21 in 10.0 mi NNW 6.9 mph - N/A   Clear
1:15 AM -0.4 °F -13.4 °F -5.8 °F 78% 30.20 in 10.0 mi NNW 6.9 mph - N/A   Clear
1:35 AM -2.2 °F -16.8 °F -9.4 °F 71% 30.20 in 10.0 mi NNW 8.1 mph - N/A   Clear
1:55 AM -0.4 °F -14.7 °F -2.2 °F 92% 30.20 in 10.0 mi North 8.1 mph - N/A   Clear
2:15 AM -2.2 °F -18.0 °F -5.8 °F 85% 30.21 in 10.0 mi North 9.2 mph - N/A   Clear
2:35 AM -2.2 °F -18.0 °F -5.8 °F 85% 30.21 in 10.0 mi North 9.2 mph - N/A   Clear
2:55 AM -2.2 °F -14.2 °F -5.8 °F 85% 30.21 in 10.0 mi North 5.8 mph - N/A   Clear
3:15 AM -2.2 °F -18.0 °F -7.6 °F 78% 30.21 in 10.0 mi North 9.2 mph - N/A   Clear
3:35 AM -4.0 °F -19.0 °F -5.8 °F 92% 30.21 in 10.0 mi North 8.1 mph - N/A   Clear
3:55 AM -4.0 °F -17.8 °F -7.6 °F 85% 30.21 in 10.0 mi North 6.9 mph - N/A   Clear
4:15 AM -4.0 °F -19.0 °F -7.6 °F 85% 30.20 in 10.0 mi NNE 8.1 mph - N/A   Clear
4:35 AM -4.0 °F -19.0 °F -7.6 °F 85% 30.20 in 10.0 mi North 8.1 mph - N/A   Clear
4:55 AM -4.0 °F -16.3 °F -7.6 °F 85% 30.20 in 10.0 mi NNE 5.8 mph - N/A   Clear
5:15 AM -4.0 °F -17.8 °F -7.6 °F 85% 30.20 in 10.0 mi North 6.9 mph - N/A   Clear
5:35 AM -5.8 °F - -9.4 °F 84% 30.20 in 10.0 mi North - - N/A   Clear
5:55 AM -5.8 °F -18.4 °F -7.6 °F 92% 30.20 in 10.0 mi North 5.8 mph - N/A   Clear
6:15 AM -5.8 °F -16.7 °F -11.2 °F 77% 30.20 in 10.0 mi North 4.6 mph - N/A   Clear
6:35 AM -5.8 °F -16.7 °F -9.4 °F 84% 30.20 in 10.0 mi North 4.6 mph - N/A   Clear
6:55 AM -5.8 °F -18.4 °F -9.4 °F 84% 30.20 in 10.0 mi North 5.8 mph - N/A   Clear
7:15 AM -5.8 °F -16.7 °F -9.4 °F 84% 30.21 in 10.0 mi North 4.6 mph - N/A   Clear
7:35 AM -5.8 °F -16.7 °F -9.4 °F 84% 30.21 in 10.0 mi North 4.6 mph - N/A   Clear
7:55 AM -5.8 °F -16.7 °F -9.4 °F 84% 30.20 in 10.0 mi North 4.6 mph - N/A   Clear
8:15 AM -5.8 °F -16.7 °F -11.2 °F 77% 30.20 in 10.0 mi North 4.6 mph - N/A   Clear
8:35 AM -7.6 °F -18.8 °F -9.4 °F 92% 30.20 in 10.0 mi North 4.6 mph - N/A   Clear
8:55 AM -7.6 °F -18.8 °F -9.4 °F 92% 30.20 in 10.0 mi North 4.6 mph - N/A   Clear
9:15 AM -5.8 °F -19.9 °F -11.2 °F 77% 30.20 in 10.0 mi North 6.9 mph - N/A   Clear
9:35 AM -5.8 °F -22.4 °F -7.6 °F 92% 30.20 in 10.0 mi NNE 9.2 mph - N/A   Clear
9:55 AM -5.8 °F -21.2 °F -9.4 °F 84% 30.20 in 10.0 mi North 8.1 mph - N/A   Clear
10:15 AM -5.8 °F -21.2 °F -7.6 °F 92% 30.21 in 10.0 mi NNE 8.1 mph - N/A   Clear
10:35 AM -5.8 °F -19.9 °F -11.2 °F 77% 30.21 in 10.0 mi North 6.9 mph - N/A   Clear
10:55 AM -4.0 °F -17.8 °F -7.6 °F 85% 30.21 in 10.0 mi North 6.9 mph - N/A   Clear
11:15 AM -4.0 °F -21.2 °F -7.6 °F 85% 30.20 in 10.0 mi North 10.4 mph - N/A   Clear
11:35 AM -4.0 °F -19.0 °F -7.6 °F 85% 30.21 in 10.0 mi North 8.1 mph - N/A   Clear
11:55 AM -2.2 °F -18.9 °F -5.8 °F 85% 30.20 in 10.0 mi North 10.4 mph - N/A   Clear
12:15 PM -2.2 °F -15.6 °F -5.8 °F 85% 30.19 in 10.0 mi North 6.9 mph - N/A   Clear
12:35 PM -2.2 °F -15.6 °F -5.8 °F 85% 30.19 in 10.0 mi North 6.9 mph - N/A   Clear
12:55 PM -0.4 °F -13.4 °F -5.8 °F 78% 30.19 in 10.0 mi North 6.9 mph - N/A   Clear
1:15 PM -0.4 °F -13.4 °F -5.8 °F 78% 30.18 in 10.0 mi North 6.9 mph - N/A   Clear
1:35 PM -0.4 °F -13.4 °F -5.8 °F 78% 30.18 in 10.0 mi North 6.9 mph - N/A   Clear
1:55 PM -0.4 °F -12.0 °F -4.0 °F 85% 30.18 in 10.0 mi North 5.8 mph - N/A   Partly Cloudy
2:15 PM -0.4 °F -13.4 °F -4.0 °F 85% 30.17 in 10.0 mi North 6.9 mph - N/A   Mostly Cloudy
2:35 PM -0.4 °F -13.4 °F -4.0 °F 85% 30.17 in 10.0 mi NNW 6.9 mph - N/A   Mostly Cloudy
2:55 PM 1.4 °F -13.5 °F -0.4 °F 92% 30.17 in 10.0 mi NNE 9.2 mph - N/A   Partly Cloudy
3:15 PM 1.4 °F -13.5 °F -4.0 °F 78% 30.17 in 10.0 mi North 9.2 mph - N/A   Clear
3:35 PM 1.4 °F -11.3 °F -2.2 °F 85% 30.18 in 10.0 mi North 6.9 mph - N/A   Clear
3:55 PM 1.4 °F -11.3 °F -4.0 °F 78% 30.19 in 10.0 mi North 6.9 mph - N/A   Partly Cloudy
4:15 PM 1.4 °F -12.5 °F -2.2 °F 85% 30.19 in 10.0 mi NNW 8.1 mph - N/A   Mostly Cloudy
4:35 PM 1.4 °F -12.5 °F -2.2 °F 85% 30.19 in 10.0 mi North 8.1 mph - N/A   Overcast
4:55 PM 1.4 °F -11.3 °F -2.2 °F 85% 30.19 in 10.0 mi North 6.9 mph - N/A   Overcast
5:15 PM 1.4 °F -12.5 °F -2.2 °F 85% 30.19 in 10.0 mi NNW 8.1 mph - N/A   Overcast
5:35 PM 1.4 °F -13.5 °F -5.8 °F 72% 30.18 in 10.0 mi North 9.2 mph - N/A   Overcast
5:55 PM 1.4 °F -13.5 °F -2.2 °F 85% 30.18 in 10.0 mi North 9.2 mph - N/A   Overcast
6:15 PM 1.4 °F -12.5 °F -2.2 °F 85% 30.18 in 10.0 mi North 8.1 mph - N/A   Overcast
6:35 PM 1.4 °F -13.5 °F -4.0 °F 78% 30.17 in 10.0 mi North 9.2 mph - N/A   Overcast
6:55 PM 1.4 °F -13.5 °F -2.2 °F 85% 30.17 in 10.0 mi North 9.2 mph - N/A   Overcast
7:15 PM 1.4 °F -13.5 °F -2.2 °F 85% 30.17 in 10.0 mi NNE 9.2 mph - N/A   Overcast
7:35 PM 1.4 °F -12.5 °F -4.0 °F 78% 30.16 in 10.0 mi North 8.1 mph - N/A   Overcast
7:55 PM 1.4 °F -12.5 °F -4.0 °F 78% 30.16 in 10.0 mi North 8.1 mph - N/A   Overcast
8:15 PM 1.4 °F -12.5 °F -2.2 °F 85% 30.15 in 10.0 mi North 8.1 mph - N/A   Overcast
8:55 PM 1.4 °F -14.5 °F -4.0 °F 78% 30.15 in 10.0 mi North 10.4 mph - N/A   Overcast
9:15 PM 1.4 °F -13.5 °F -2.2 °F 85% 30.15 in 10.0 mi North 9.2 mph - N/A   Partly Cloudy
9:35 PM -0.4 °F -15.7 °F -4.0 °F 85% 30.15 in 10.0 mi North 9.2 mph - N/A   Scattered Clouds
9:55 PM -0.4 °F -15.7 °F -5.8 °F 78% 30.14 in 10.0 mi North 9.2 mph - N/A   Overcast
10:15 PM -0.4 °F -14.7 °F -4.0 °F 85% 30.14 in 10.0 mi NNW 8.1 mph - N/A   Overcast
10:35 PM -0.4 °F -14.7 °F -5.8 °F 78% 30.15 in 10.0 mi North 8.1 mph - N/A   Overcast
10:55 PM -0.4 °F -15.7 °F -7.6 °F 72% 30.15 in 10.0 mi North 9.2 mph - N/A   Overcast
11:15 PM -0.4 °F -15.7 °F -5.8 °F 78% 30.15 in 10.0 mi North 9.2 mph - N/A   Overcast
11:35 PM -2.2 °F -18.9 °F -5.8 °F 85% 30.16 in 10.0 mi NNW 10.4 mph - N/A   Overcast
11:55 PM -2.2 °F -19.9 °F -5.8 °F 85% 30.16 in 10.0 mi NNW 11.5 mph - N/A   Partly Cloudy